Time,TemperatureF,DewpointF,PressureIn,WindDirection,WindDirectionDegrees,WindSpeedMPH,WindSpeedGustMPH,Humidity,HourlyPrecipIn,Conditions,Clouds,dailyrainin,SoftwareType,DateUTC
2013-07-21 00:02:00,75.0,71.0,-100.00,North,-999,-999.0,-999.0,87,0.00,,,0.00,,2013-07-21 05:02:00,
2013-07-21 00:22:00,74.0,72.0,-100.00,North,-999,-999.0,-999.0,93,0.00,,,-99.99,,2013-07-21 05:22:00,
2013-07-21 00:32:00,74.0,72.0,-100.00,North,-999,-999.0,-999.0,93,0.00,,,-99.99,,2013-07-21 05:32:00,
2013-07-21 00:52:00,74.0,72.0,-100.00,North,-999,-999.0,-999.0,94,-99.99,,,0.00,,2013-07-21 05:52:00,
2013-07-21 01:01:00,74.0,72.0,-100.00,North,-999,-999.0,-999.0,94,-99.99,,,0.00,,2013-07-21 06:01:00,
2013-07-21 01:22:00,74.0,72.0,-100.00,North,-999,-999.0,-999.0,96,0.00,,,0.00,,2013-07-21 06:22:00,
2013-07-21 01:32:00,73.0,72.0,-100.00,North,-999,-999.0,-999.0,97,0.00,,,0.00,,2013-07-21 06:32:00,
2013-07-21 01:42:00,73.0,72.0,-100.00,North,-999,-999.0,-999.0,97,0.00,,,0.00,,2013-07-21 06:42:00,
2013-07-21 01:52:00,73.0,72.0,-100.00,North,-999,-999.0,-999.0,97,0.00,,,0.00,,2013-07-21 06:52:00,
2013-07-21 02:01:00,73.0,72.0,-100.00,North,-999,-999.0,-999.0,98,0.00,,,0.00,,2013-07-21 07:01:00,
2013-07-21 02:22:00,73.0,73.0,-100.00,North,-999,-999.0,-999.0,100,0.00,,,-99.99,,2013-07-21 07:22:00,
2013-07-21 02:32:00,73.0,73.0,-100.00,North,-999,-999.0,-999.0,100,0.00,,,0.00,,2013-07-21 07:32:00,
2013-07-21 02:52:00,72.0,72.0,-100.00,North,-999,-999.0,-999.0,100,-99.99,,,0.00,,2013-07-21 07:52:00,
2013-07-21 03:01:00,72.0,72.0,-100.00,North,-999,-999.0,-999.0,100,0.00,,,0.00,,2013-07-21 08:01:00,
2013-07-21 03:22:00,72.0,72.0,-100.00,North,-999,-999.0,-999.0,100,0.00,,,0.00,,2013-07-21 08:22:00,
2013-07-21 03:33:00,72.0,72.0,-100.00,North,-999,-999.0,-999.0,100,0.00,,,0.00,,2013-07-21 08:33:00,
2013-07-21 03:43:00,72.0,72.0,-100.00,North,-999,-999.0,-999.0,100,0.00,,,0.00,,2013-07-21 08:43:00,
2013-07-21 03:52:00,72.0,72.0,-100.00,North,-999,-999.0,-999.0,100,0.00,,,-99.99,,2013-07-21 08:52:00,
2013-07-21 04:02:00,72.0,72.0,-100.00,North,-999,-999.0,-999.0,100,0.00,,,0.00,,2013-07-21 09:02:00,
2013-07-21 04:22:00,72.0,72.0,-100.00,North,-999,-999.0,-999.0,100,0.00,,,0.00,,2013-07-21 09:22:00,
2013-07-21 04:32:00,72.0,72.0,-100.00,North,-999,-999.0,-999.0,100,0.00,,,0.00,,2013-07-21 09:32:00,
2013-07-21 04:52:00,72.0,72.0,-100.00,North,-999,-999.0,-999.0,100,0.00,,,0.00,,2013-07-21 09:52:00,
2013-07-21 05:02:00,72.0,72.0,-100.00,North,-999,-999.0,-999.0,100,0.00,,,0.00,,2013-07-21 10:02:00,
2013-07-21 05:22:00,72.0,72.0,-100.00,North,-999,-999.0,-999.0,100,0.00,,,-99.99,,2013-07-21 10:22:00,
2013-07-21 05:32:00,71.0,71.0,-100.00,North,-999,-999.0,-999.0,100,0.00,,,0.00,,2013-07-21 10:32:00,
2013-07-21 05:52:00,71.0,71.0,-100.00,North,-999,-999.0,-999.0,100,0.00,,,0.00,,2013-07-21 10:52:00,
2013-07-21 06:02:00,71.0,71.0,-100.00,North,-999,-999.0,-999.0,100,0.00,,,0.00,,2013-07-21 11:02:00,
2013-07-21 06:22:00,71.0,71.0,-100.00,North,-999,-999.0,-999.0,100,0.00,,,0.00,,2013-07-21 11:22:00,
2013-07-21 06:33:00,71.0,71.0,-100.00,North,-999,-999.0,-999.0,100,0.00,,,0.00,,2013-07-21 11:33:00,
2013-07-21 06:43:00,71.0,71.0,-100.00,North,-999,-999.0,-999.0,100,0.00,,,0.00,,2013-07-21 11:43:00,
2013-07-21 06:52:00,71.0,71.0,-100.00,North,-999,-999.0,-999.0,100,0.00,,,0.00,,2013-07-21 11:52:00,
2013-07-21 07:01:00,71.0,71.0,-100.00,North,-999,-999.0,-999.0,100,0.00,,,0.00,,2013-07-21 12:01:00,
2013-07-21 07:22:00,71.0,71.0,-100.00,North,-999,-999.0,-999.0,100,0.00,,,0.00,,2013-07-21 12:22:00,
2013-07-21 07:32:00,71.0,71.0,-100.00,North,-999,-999.0,-999.0,100,0.00,,,0.00,,2013-07-21 12:32:00,
2013-07-21 07:53:00,72.0,72.0,-100.00,North,-999,-999.0,-999.0,100,0.00,,,0.00,,2013-07-21 12:53:00,
2013-07-21 08:01:00,73.0,73.0,-100.00,North,-999,-999.0,-999.0,100,0.00,,,0.00,,2013-07-21 13:01:00,
2013-07-21 08:22:00,74.0,74.0,-100.00,North,-999,-999.0,-999.0,100,0.00,,,0.00,,2013-07-21 13:22:00,
2013-07-21 08:32:00,74.0,74.0,-100.00,North,-999,-999.0,-999.0,100,0.00,,,0.00,,2013-07-21 13:32:00,
2013-07-21 08:52:00,74.0,74.0,-100.00,North,-999,-999.0,-999.0,100,0.00,,,0.00,,2013-07-21 13:52:00,
2013-07-21 09:01:00,75.0,75.0,-100.00,North,-999,-999.0,-999.0,99,0.00,,,0.00,,2013-07-21 14:01:00,
2013-07-21 09:22:00,76.0,74.0,-100.00,North,-999,-999.0,-999.0,95,0.00,,,-99.99,,2013-07-21 14:22:00,
2013-07-21 09:32:00,77.0,74.0,-100.00,North,-999,-999.0,-999.0,92,0.00,,,0.00,,2013-07-21 14:32:00,
2013-07-21 09:53:00,77.0,74.0,-100.00,North,-999,-999.0,-999.0,90,0.00,,,0.00,,2013-07-21 14:53:00,
2013-07-21 10:02:00,77.0,74.0,-100.00,North,-999,-999.0,-999.0,90,0.00,,,0.00,,2013-07-21 15:02:00,
2013-07-21 10:11:00,77.0,74.0,-100.00,North,-999,-999.0,-999.0,90,0.00,,,0.00,,2013-07-21 15:11:00,
2013-07-21 10:22:00,77.0,74.0,-100.00,North,-999,-999.0,-999.0,90,0.00,,,0.00,,2013-07-21 15:22:00,
2013-07-21 10:32:00,79.0,72.0,-100.00,North,-999,-999.0,-999.0,78,0.00,,,0.00,,2013-07-21 15:32:00,
2013-07-21 10:53:00,80.0,72.0,-100.00,North,-999,-999.0,-999.0,74,0.00,,,0.00,,2013-07-21 15:53:00,
2013-07-21 11:01:00,80.0,72.0,-100.00,North,-999,-999.0,-999.0,74,0.00,,,0.00,,2013-07-21 16:01:00,
2013-07-21 11:11:00,80.0,72.0,-100.00,North,-999,-999.0,-999.0,74,0.00,,,0.00,,2013-07-21 16:11:00,
2013-07-21 11:22:00,80.0,72.0,-100.00,North,-999,-999.0,-999.0,74,0.00,,,0.00,,2013-07-21 16:22:00,
2013-07-21 11:32:00,83.0,71.0,-100.00,North,-999,-999.0,-999.0,67,0.00,,,0.00,,2013-07-21 16:32:00,
2013-07-21 11:52:00,83.0,69.0,-100.00,North,-999,-999.0,-999.0,62,0.00,,,0.00,,2013-07-21 16:52:00,
2013-07-21 12:02:00,84.0,68.0,-100.00,North,-999,-999.0,-999.0,58,-99.99,,,0.00,,2013-07-21 17:02:00,
2013-07-21 12:22:00,85.0,69.0,-100.00,North,-999,-999.0,-999.0,58,-99.99,,,0.00,,2013-07-21 17:22:00,
2013-07-21 12:33:00,85.0,67.0,-100.00,North,-999,-999.0,-999.0,55,0.00,,,0.00,,2013-07-21 17:33:00,
2013-07-21 12:53:00,86.0,67.0,-100.00,North,-999,-999.0,-999.0,54,0.00,,,0.00,,2013-07-21 17:53:00,
2013-07-21 13:01:00,85.0,68.0,-100.00,North,-999,-999.0,-999.0,56,0.00,,,0.00,,2013-07-21 18:01:00,
2013-07-21 13:22:00,86.0,67.0,-100.00,North,-999,-999.0,-999.0,52,0.00,,,-99.99,,2013-07-21 18:22:00,
2013-07-21 13:32:00,86.0,67.0,-100.00,North,-999,-999.0,-999.0,52,0.00,,,-99.99,,2013-07-21 18:32:00,
2013-07-21 13:52:00,87.0,67.0,-100.00,North,-999,-999.0,-999.0,51,0.00,,,0.00,,2013-07-21 18:52:00,
2013-07-21 14:01:00,88.0,66.0,-100.00,North,-999,-999.0,-999.0,48,0.00,,,0.00,,2013-07-21 19:01:00,
2013-07-21 14:22:00,88.0,66.0,-100.00,North,-999,-999.0,-999.0,49,0.00,,,-99.99,,2013-07-21 19:22:00,
2013-07-21 14:32:00,88.0,66.0,-100.00,North,-999,-999.0,-999.0,49,0.00,,,-99.99,,2013-07-21 19:32:00,
2013-07-21 14:52:00,89.0,67.0,-100.00,North,-999,-999.0,-999.0,48,0.00,,,0.00,,2013-07-21 19:52:00,
2013-07-21 15:01:00,89.0,67.0,-100.00,North,-999,-999.0,-999.0,48,0.00,,,0.00,,2013-07-21 20:01:00,
2013-07-21 15:22:00,89.0,68.0,-100.00,North,-999,-999.0,-999.0,50,0.00,,,0.00,,2013-07-21 20:22:00,
2013-07-21 15:32:00,89.0,66.0,-100.00,North,-999,-999.0,-999.0,47,0.00,,,0.00,,2013-07-21 20:32:00,
2013-07-21 15:52:00,90.0,67.0,-100.00,North,-999,-999.0,-999.0,47,0.00,,,0.00,,2013-07-21 20:52:00,
2013-07-21 16:01:00,89.0,67.0,-100.00,North,-999,-999.0,-999.0,48,0.00,,,0.00,,2013-07-21 21:01:00,
2013-07-21 16:11:00,89.0,67.0,-100.00,North,-999,-999.0,-999.0,48,0.00,,,0.00,,2013-07-21 21:11:00,
2013-07-21 16:22:00,89.0,67.0,-100.00,North,-999,-999.0,-999.0,48,0.00,,,0.00,,2013-07-21 21:22:00,
2013-07-21 16:32:00,89.0,67.0,-100.00,North,-999,-999.0,-999.0,48,0.00,,,0.00,,2013-07-21 21:32:00,
2013-07-21 16:52:00,86.0,70.0,-100.00,North,-999,-999.0,-999.0,57,0.00,,,-99.99,,2013-07-21 21:52:00,
2013-07-21 19:32:00,72.0,72.0,-100.00,North,-999,-999.0,-999.0,100,0.09,,,0.32,,2013-07-22 00:32:00,
2013-07-21 19:53:00,72.0,72.0,-100.00,North,-999,-999.0,-999.0,100,0.09,,,0.32,,2013-07-22 00:53:00,
2013-07-21 20:02:00,72.0,72.0,-100.00,North,-999,-999.0,-999.0,100,0.05,,,-99.99,,2013-07-22 01:02:00,
2013-07-21 20:21:00,73.0,73.0,-100.00,North,-999,-999.0,-999.0,100,-99.99,,,0.32,,2013-07-22 01:21:00,
2013-07-21 20:32:00,73.0,73.0,-100.00,North,-999,-999.0,-999.0,100,0.00,,,0.32,,2013-07-22 01:32:00,
2013-07-21 20:42:00,73.0,73.0,-100.00,North,-999,-999.0,-999.0,100,0.00,,,0.32,,2013-07-22 01:42:00,
2013-07-21 20:52:00,73.0,73.0,-100.00,North,-999,-999.0,-999.0,100,0.00,,,0.32,,2013-07-22 01:52:00,
2013-07-21 21:02:00,73.0,73.0,-100.00,North,-999,-999.0,-999.0,100,0.00,,,0.32,,2013-07-22 02:02:00,
2013-07-21 21:22:00,73.0,73.0,-100.00,North,-999,-999.0,-999.0,100,0.00,,,0.32,,2013-07-22 02:22:00,
2013-07-21 21:32:00,73.0,73.0,-100.00,North,-999,-999.0,-999.0,100,0.00,,,0.32,,2013-07-22 02:32:00,
2013-07-21 21:52:00,73.0,73.0,-100.00,North,-999,-999.0,-999.0,100,0.00,,,0.32,,2013-07-22 02:52:00,
2013-07-21 22:01:00,73.0,73.0,-100.00,North,-999,-999.0,-999.0,100,0.00,,,-99.99,,2013-07-22 03:01:00,
2013-07-21 22:22:00,74.0,74.0,-100.00,North,-999,-999.0,-999.0,100,0.00,,,0.32,,2013-07-22 03:22:00,
2013-07-21 22:33:00,74.0,74.0,-100.00,North,-999,-999.0,-999.0,100,0.00,,,0.32,,2013-07-22 03:33:00,
2013-07-21 22:53:00,75.0,75.0,-100.00,North,-999,-999.0,-999.0,100,0.00,,,0.32,,2013-07-22 03:53:00,
2013-07-21 23:01:00,75.0,75.0,-100.00,North,-999,-999.0,-999.0,100,0.00,,,0.32,,2013-07-22 04:01:00,
2013-07-21 23:22:00,75.0,75.0,-100.00,North,-999,-999.0,-999.0,100,0.00,,,0.32,,2013-07-22 04:22:00,
2013-07-21 23:33:00,76.0,76.0,-100.00,North,-999,-999.0,-999.0,100,0.00,,,0.32,,2013-07-22 04:33:00,
2013-07-21 23:43:00,76.0,76.0,-100.00,North,-999,-999.0,-999.0,100,0.00,,,0.32,,2013-07-22 04:43:00,